#timestamp,LO_Frequency,Hit,StdDev 
1503615615.7,286047002.6,P,1.1
1503615635.6,286047001.4,N,0.9
1503615655.4,286047002.5,N,0.9
1503615675.2,286047001.6,N,0.8
1503615695.1,286047004.0,Y,0.0
1503615696.0,286047004.0,P,1.2
1503615715.8,286047002.3,N,1.0
1503615735.6,286047002.8,N,0.9
1503615755.5,286047001.4,N,0.9
1503615775.3,286047001.7,N,0.9
1503615795.2,286047002.5,N,0.8
1503615815.9,286047002.1,N,0.8
1503615835.7,286047002.2,N,0.7
1503615855.6,286047002.1,N,0.7
1503615875.4,286047002.0,N,0.7
1503615895.3,286047002.6,Y,0.0
1503615915.1,286046999.9,P,1.2
1503615916.0,286046999.9,N,1.1
1503615935.8,286046999.9,N,1.0
1503615955.7,286047000.5,N,0.9
1503615975.5,286047001.1,N,0.9
1503615995.3,286047000.5,N,0.8
1503616015.2,286047000.3,N,0.8
1503616035.0,286047000.0,N,0.7
1503616035.9,286047000.0,N,0.7
1503616055.8,286047000.6,N,0.7
1503616075.6,286047000.4,N,0.6
1503616095.4,286047000.5,N,0.6
1503616115.3,286047000.4,N,0.6
1503616135.1,286047000.3,N,0.6
1503616155.9,286047000.4,N,0.6
1503616175.7,286046999.7,N,0.6
1503616195.5,286047002.8,Y,0.0
1503616215.4,286047000.5,P,0.1
1503616235.2,286047000.4,P,0.0
1503616255.1,286047000.3,P,0.1
1503616256.0,286047000.3,Y,0.0
1503616275.8,286047000.6,P,0.1
1503616295.6,286047000.1,N,0.2
1503616315.5,286047002.5,P,0.9
1503616335.3,286046999.7,N,1.0
1503616355.1,286047002.5,N,1.1
1503616375.9,286047002.4,N,1.2
1503616395.7,286047002.3,N,1.1
1503616415.6,286047002.2,N,1.1
1503616435.4,286047001.9,N,1.1
1503616455.2,286047001.5,N,1.0
1503616475.1,286047001.4,N,1.0
1503616476.0,286047001.4,N,0.9
1503616495.8,286047001.8,N,0.9
1503616515.7,286047001.6,N,0.9
1503616535.5,286047001.4,N,0.8
1503616555.3,286047003.5,Y,0.0
1503616575.2,286047001.5,P,0.0
1503616595.0,286047002.1,P,0.3
1503616595.9,286047002.1,P,0.3
1503616615.8,286046999.7,N,0.9
1503616635.6,286047002.6,N,0.9
1503616655.4,286047002.6,N,0.9
1503616675.3,286047002.2,N,0.9
1503616695.1,286047002.3,N,0.8
1503616715.8,286047001.5,N,0.8
1503616735.7,286047002.7,Y,0.0
1503616755.5,286047000.2,P,0.8
1503616775.4,286047000.4,N,0.7
1503616795.2,286046999.9,N,0.7
1503616815.0,286047001.0,N,0.7
1503616815.9,286047001.0,N,0.6
1503616835.8,286047000.3,N,0.6
1503616855.6,286047000.0,N,0.6
1503616875.5,286046999.8,N,0.6
1503616895.3,286047000.5,N,0.6
1503616915.1,286047000.3,N,0.6
1503616935.9,286047000.2,N,0.5
1503616955.7,286047000.0,N,0.5
1503616975.6,286046999.9,N,0.5
1503616995.4,286047000.3,N,0.5
1503617015.2,286047000.7,N,0.5
1503617035.1,286046999.9,N,0.5
1503617036.0,286046999.9,N,0.5
1503617055.8,286047002.4,Y,0.0
1503617075.7,286047002.5,P,1.1
1503617095.5,286047002.5,N,1.0
1503617115.3,286047002.3,N,0.9
1503617135.2,286047001.9,N,0.8
1503617155.0,286047002.7,Y,0.0
1503617155.9,286047002.7,P,0.4
1503617175.8,286046998.8,P,1.7
1503617195.6,286046998.9,N,1.7
1503617215.4,286046998.1,N,1.9
1503617235.3,286046998.1,N,1.8
1503617255.1,286046998.9,N,1.7
1503617275.9,286046998.9,N,1.6
1503617295.7,286046998.5,N,1.6
1503617315.5,286046998.3,N,1.5
1503617335.4,286046998.5,N,1.5
1503617355.2,286047000.3,N,1.5
1503617375.0,286047000.4,N,1.4
1503617375.9,286047000.4,N,1.4
1503617395.8,286047001.0,N,1.4
1503617415.6,286047000.9,N,1.4
1503617435.5,286047001.0,N,1.4
1503617455.3,286047000.2,N,1.4
1503617475.1,286047000.5,N,1.3
1503617495.9,286046999.9,N,1.3
1503617515.7,286046998.1,N,1.3
1503617535.6,286047000.3,N,1.3
1503617555.4,286047000.7,N,1.3
1503617575.2,286047001.2,N,1.3
1503617595.1,286046998.4,N,1.3
1503617596.0,286046998.4,N,1.3
1503617615.8,286046998.4,N,1.3
1503617635.6,286047001.1,N,1.3
1503617655.5,286047000.8,N,1.3
1503617675.3,286046998.5,N,1.3
1503617695.2,286046998.4,N,1.2
1503617715.0,286046998.2,N,1.1
1503617715.9,286046998.2,N,1.1
1503617735.7,286047001.2,N,1.2
1503617755.6,286046998.3,N,1.2
1503617775.4,286047001.2,N,1.2
1503617795.3,286047000.9,N,1.2
1503617815.1,286046998.1,N,1.2
1503617816.0,286046998.1,N,1.2
1503617835.8,286047000.7,N,1.2
1503617855.7,286047001.1,N,1.2
1503617875.5,286047000.2,N,1.2
1503617895.3,286047000.2,N,1.2
1503617915.2,286047001.0,N,1.2
1503617935.0,286047000.4,N,1.2
1503617935.9,286047000.4,N,1.2
1503617955.8,286046998.9,N,1.2
1503617975.6,286046998.8,N,1.2
1503617995.4,286046998.4,N,1.2
1503618015.3,286046998.1,N,1.2
1503618035.1,286047000.9,N,1.2
1503618055.9,286047000.4,N,1.2
1503618075.7,286047000.9,N,1.2
1503618095.5,286047000.1,N,1.2
1503618115.4,286047000.0,N,1.2
1503618135.2,286047000.7,N,1.2
1503618155.0,286047000.4,N,1.2
1503618156.0,286047000.4,N,1.1
1503618175.8,286047000.3,N,1.1
1503618195.6,286047000.8,N,1.1
1503618215.5,286046998.6,N,1.1
1503618235.3,286046998.2,N,1.1
1503618255.1,286047000.8,N,1.1
1503618275.9,286047000.4,N,1.1
1503618295.7,286047000.6,N,1.0
1503618315.6,286047001.0,N,1.0
1503618335.4,286047001.0,N,1.0
1503618355.2,286047000.4,N,1.0
1503618375.1,286047001.0,N,0.9
1503618376.0,286047001.0,N,0.9
1503618395.8,286046998.1,N,1.0
1503618415.7,286047000.8,N,1.0
1503618435.5,286047000.9,N,1.0
1503618455.3,286047000.3,N,1.0
1503618475.2,286047001.0,N,1.0
1503618495.0,286047001.1,N,1.0
1503618495.9,286047001.1,N,1.0
1503618515.8,286047000.9,N,0.9
1503618535.6,286047000.2,N,0.9
1503618555.4,286047000.5,N,0.8
1503618575.3,286047001.0,N,0.8
1503618595.1,286047000.5,N,0.8
1503618615.9,286047000.4,N,0.8
1503618635.7,286047000.9,N,0.8
1503618655.5,286047000.7,N,0.8
1503618675.4,286047000.9,N,0.8
1503618695.2,286047000.9,N,0.8
1503618715.1,286046998.2,N,0.9
1503618716.0,286046998.2,N,1.0
1503618735.8,286046998.5,N,1.0
1503618755.6,286047001.0,N,1.0
1503618775.5,286047000.1,N,0.9
1503618795.3,286047000.8,N,0.9
1503618815.1,286047000.5,N,0.9
1503618835.9,286047000.0,N,0.9
1503618855.7,286047000.5,N,0.9
1503618875.6,286047002.3,N,0.9
1503618895.4,286047002.6,N,1.0
1503618915.2,286047002.5,N,1.1
1503618935.1,286047002.2,N,1.1
1503618936.0,286047002.2,N,1.1
1503618955.8,286047000.1,N,1.1
1503618975.7,286047002.1,N,1.1
1503618995.5,286047002.8,N,1.1
1503619015.3,286047002.4,N,1.2
1503619035.2,286047002.7,N,1.2
1503619055.0,286046999.8,N,1.2
1503619055.9,286046999.8,N,1.3
1503619075.8,286047002.2,N,1.3
1503619095.6,286047002.3,N,1.3
1503619115.4,286047002.0,N,1.3
1503619135.3,286047002.3,N,1.3
1503619155.1,286046999.8,N,1.3
1503619175.9,286047001.5,N,1.3
1503619195.7,286047001.5,N,1.3
